Location: Noordwijk
(52.2400°N, 4.4500°E)
Time: 12:08:10
(UTC+00:00)

AO-109 - Visible Passes

Search period start: 04 December 2022 00:00
Search period end: 14 December 2022 00:00
Orbit: 453 x 506 km, 60.7° (Epoch: 03 December)

Date Brightness Start Highest point End Pass type
(mag) Time Alt. Az. Time Alt. Az. Time Alt. Az.
04 Dec ? 04:08:21 12° NE 04:08:21 12° NE 04:08:37 10° NE visible
04 Dec ? 05:42:34 21° NNW 05:43:06 22° N 05:45:57 10° NE visible
05 Dec ? 05:16:01 22° N 05:16:01 22° N 05:18:25 10° NE visible
05 Dec ? 06:50:44 10° NW 06:53:43 24° NNE 06:56:41 10° ENE visible
06 Dec ? 04:49:25 18° NNE 04:49:25 18° NNE 04:50:51 10° NE visible
06 Dec ? 06:23:39 12° NW 06:26:07 23° N 06:29:02 10° ENE visible
07 Dec ? 04:22:47 13° NE 04:22:47 13° NE 04:23:17 10° NE visible
07 Dec ? 05:57:01 17° NNW 05:58:29 22° N 06:01:22 10° ENE visible
08 Dec ? 05:30:21 21° N 05:30:50 22° N 05:33:40 10° ENE visible
09 Dec ? 05:03:40 20° NNE 05:03:40 20° NNE 05:05:58 10° ENE visible
09 Dec ? 06:37:53 11° NW 06:41:10 40° NNE 06:44:35 10° E visible
10 Dec ? 04:36:58 16° NE 04:36:58 16° NE 04:38:15 10° NE visible
10 Dec ? 06:11:11 17° NW 06:13:31 36° NNE 06:16:52 10° E visible
11 Dec ? 04:10:16 11° NE 04:10:16 11° NE 04:10:31 10° NE visible
11 Dec ? 05:44:29 24° NNW 05:45:50 33° NNE 05:49:08 10° E visible
12 Dec ? 05:17:46 30° N 05:18:08 31° NNE 05:21:22 10° E visible
12 Dec ? 06:52:06 10° NW 06:55:39 67° SW 06:59:13 10° SE visible
13 Dec ? 04:51:04 26° NE 04:51:04 26° NE 04:53:34 10° E visible
13 Dec ? 06:25:18 17° NW 06:28:00 79° SW 06:31:36 10° SE visible
